#timestamp,LO_Frequency,Hit,StdDev 
1698238815.3,286046998.5,P
1698238835.1,286046998.3,P
1698238855.9,286046998.8,P
1698238875.7,286046998.7,Y
1698238895.5,286047002.7,P
1698238915.4,286047000.6,N
1698238935.2,286047001.2,N
1698238955.0,286047001.1,N
1698238956.0,286047001.1,N
1698238975.8,286047000.9,N
1698238995.6,286047000.2,N
1698239015.5,286047001.0,N
1698239035.3,286046998.3,N
1698239055.1,286046998.1,N
1698239075.9,286046998.9,N
1698239095.7,286046998.9,N
1698239115.5,286046998.8,N
1698239135.4,286046998.3,N
1698239155.2,286046996.6,N
1698239175.1,286046997.5,N
1698239176.0,286046997.5,N
1698239195.8,286046997.3,N
1698239215.6,286046998.0,N
1698239235.5,286046995.2,N
1698239255.3,286046996.3,N
1698239275.2,286046995.6,N
1698239295.9,286046995.5,N
1698239315.7,286046995.7,N
1698239335.6,286046996.2,N
1698239355.4,286046996.4,N
1698239375.2,286046993.8,Y
1698239395.1,286046995.6,P
1698239396.0,286046995.6,P
1698239415.8,286046995.9,P
1698239435.7,286046995.9,Y
1698239455.5,286047001.2,P
1698239475.3,286047000.8,N
1698239495.2,286047001.2,N
1698239515.0,286047001.2,N
1698239515.9,286047001.2,N
1698239535.8,286046998.2,N
1698239555.6,286046999.0,N
1698239575.4,286046996.5,N
1698239595.3,286046996.6,N
1698239615.1,286046997.0,N
1698239635.8,286046997.5,N
1698239655.7,286046995.5,N
1698239675.5,286046995.0,N
1698239695.4,286046996.1,N
1698239715.2,286046996.2,N
1698239735.0,286046993.7,N
1698239735.9,286046993.7,N
1698239755.8,286046996.1,N
1698239775.6,286046996.3,N
1698239795.4,286046993.3,N
1698239815.3,286046996.2,N
1698239835.1,286046996.0,N
1698239855.9,286046995.8,N
1698239875.7,286046996.1,N
1698239895.5,286046995.7,N
1698239915.4,286046995.3,N
1698239935.2,286046995.7,N
1698239955.0,286046995.6,N
1698239955.9,286046995.6,N
1698239975.8,286046996.1,N
1698239995.6,286046997.7,N
1698240015.5,286046996.9,N
1698240035.3,286046999.2,N
1698240055.1,286046997.0,N
1698240075.9,286046997.2,N
1698240095.7,286046995.2,Y
1698240115.6,286046998.8,P
1698240135.4,286046999.1,N
1698240155.2,286046996.5,N
1698240175.1,286046997.0,N
1698240176.0,286046997.0,N
1698240195.8,286046997.2,N
1698240215.6,286046997.1,N
1698240235.5,286046995.2,Y
1698240255.3,286047000.8,P
1698240275.2,286046998.2,N
1698240295.9,286046999.0,N
1698240315.7,286046999.2,N
1698240335.6,286046998.9,N
1698240355.4,286046999.0,N
1698240375.3,286046996.9,Y
1698240395.1,286046999.3,P
1698240396.0,286046999.3,P
1698240415.8,286046998.4,P
1698240435.7,286046998.4,Y
1698240455.5,286046998.1,P
1698240475.3,286046998.8,N
1698240495.2,286046998.9,N
1698240515.0,286046998.4,Y
1698240515.9,286046998.4,P
1698240535.8,286047001.1,P
1698240555.6,286046998.3,N
1698240575.4,286046998.5,N
1698240595.3,286046998.5,N
1698240615.1,286047000.7,N
1698240635.9,286047001.1,N
1698240655.7,286047000.6,N
1698240675.5,286046998.1,N
1698240695.4,286047001.2,N
1698240715.2,286046998.1,N
1698240735.0,286047001.0,N
1698240735.9,286047001.0,N
1698240755.8,286047001.1,N
1698240775.6,286047001.2,N
1698240795.5,286047001.1,N
1698240815.3,286046998.3,N
1698240835.1,286046999.0,N
1698240855.9,286046998.9,N
1698240875.7,286046999.2,N
1698240895.5,286046996.6,N
1698240915.4,286046996.5,N
1698240935.2,286046999.2,N
1698240955.0,286046999.2,N
1698240956.0,286046999.2,N
1698240975.8,286046996.8,N
1698240995.6,286046996.7,N
1698241015.5,286046996.8,N
1698241035.3,286046999.1,N
1698241055.1,286046997.1,N
1698241075.9,286046997.3,N
1698241095.7,286046997.6,N
1698241115.6,286046996.8,N
1698241135.4,286046996.7,N
1698241155.2,286046995.3,N
1698241175.1,286046995.6,N
1698241176.0,286046995.6,N
1698241195.8,286046995.4,N
1698241215.6,286046995.6,N
1698241235.5,286046995.6,N
1698241255.3,286047011.9,Y
1698241275.2,286046998.2,P
1698241295.9,286046998.6,P
1698241315.7,286046999.3,N
1698241335.6,286046998.8,N
1698241355.4,286046998.1,Y
1698241375.2,286046999.9,P
1698241395.1,286047000.2,N
1698241396.0,286047000.2,N
1698241415.8,286047000.0,N
1698241435.7,286047000.9,N
1698241455.5,286047000.5,N
1698241475.3,286047000.9,N
1698241495.2,286047001.1,N
1698241515.0,286047000.8,N
1698241515.9,286047000.8,N
1698241535.8,286047001.1,N
1698241555.6,286046999.9,N
1698241575.4,286047002.7,Y
1698241595.3,286047000.0,P
1698241615.1,286047002.8,P
1698241635.8,286047000.5,N
1698241655.7,286046999.7,N
1698241675.5,286046999.9,N
1698241695.4,286047000.1,N
1698241715.2,286047000.6,N
1698241735.0,286047002.4,N
1698241735.9,286047002.4,N
1698241755.8,286047002.1,N
1698241775.6,286047002.0,N
1698241795.4,286047001.3,N
1698241815.3,286047003.6,Y
1698241835.1,286047003.8,P
1698241855.9,286047001.4,N
1698241875.7,286047002.1,N
1698241895.5,286047001.5,N
1698241915.4,286047002.6,N
1698241935.2,286047000.1,N
1698241955.0,286047000.0,N
1698241955.9,286047000.0,N
1698241975.8,286046998.5,N
1698241995.6,286046998.3,N
1698242015.5,286046998.4,N
1698242035.3,286046999.1,N
1698242055.1,286046997.3,N
1698242075.9,286046995.4,N
1698242095.7,286046998.0,N
1698242115.5,286046995.5,N
1698242135.4,286046995.1,N
1698242155.2,286046996.4,N
1698242175.1,286046996.1,N
1698242176.0,286046996.1,N
1698242195.8,286046995.7,N
1698242215.6,286046995.8,N
1698242235.5,286046995.0,N
1698242255.3,286046998.0,N
1698242275.1,286046996.7,N
1698242295.9,286046997.2,N
1698242315.7,286046999.2,N
1698242335.6,286046998.8,N
1698242355.4,286046996.6,N
1698242375.2,286046995.5,N
1698242395.1,286046995.9,N
1698242396.0,286046995.9,N
